GW6028 Weather Reports


Display with metric or nautical units.
time (UTC)temp
F
wind
direction
speed
MPH
gust
MPH
rain 1hr
in
rain 24hr
in
rain mn
in
humidity
%
barometer
mb
20260505030042 60 203 7.0 14.0 0.00 0.00 0.00 51 1009.5
20260505025508 60 172 6.0 13.0 0.00 0.00 0.00 51 1009.5
20260505025008 60 214 8.0 13.0 0.00 0.00 0.00 51 1009.4
20260505024519 60 160 7.0 12.0 0.00 0.00 0.00 50 1009.4
20260505024009 60 172 6.0 12.0 0.00 0.00 0.00 50 1009.5
20260505023507 61 179 8.0 13.0 0.00 0.00 0.00 50 1009.4
20260505023025 61 139 7.0 13.0 0.00 0.00 0.00 49 1009.4
20260505022506 61 226 6.0 12.0 0.00 0.00 0.00 49 1009.4
20260505022011 61 204 7.0 18.0 0.00 0.00 0.00 49 1009.4
20260505021525 62 227 9.0 18.0 0.00 0.00 0.00 48 1009.4
20260505021004 62 242 8.0 14.0 0.00 0.00 0.00 48 1009.4
20260505020503 62 227 9.0 14.0 0.00 0.00 0.00 48 1009.3
20260505015504 62 219 7.0 15.0 0.00 0.00 0.00 48 1009.3
20260505015004 62 243 10.0 15.0 0.00 0.00 0.00 47 1009.2
20260505014520 62 240 8.0 15.0 0.00 0.00 0.00 48 1009.1
20260505014008 62 199 8.0 15.0 0.00 0.00 0.00 48 1009.2
20260505013507 63 216 9.0 15.0 0.00 0.00 0.00 47 1009.1
20260505013022 63 220 7.0 12.0 0.00 0.00 0.00 47 1009.1
20260505012503 63 224 7.0 17.0 0.00 0.00 0.00 47 1009.0
20260505012001 63 231 10.0 17.0 0.00 0.00 0.00 46 1008.9
20260505011003 64 200 9.0 16.0 0.00 0.00 0.00 45 1008.6
20260505010502 64 198 8.0 15.0 0.00 0.00 0.00 45 1008.5
20260505010008 64 225 6.0 15.0 0.00 0.00 0.00 45 1008.5
20260505005507 64 207 6.0 14.0 0.00 0.00 0.00 44 1008.3
20260505005004 65 250 8.0 14.0 0.00 0.00 0.00 44 1008.1
20260505004524 65 252 6.0 16.0 0.00 0.00 0.00 44 1007.9
20260505004004 65 164 10.0 16.0 0.00 0.00 0.00 42 1007.8
20260505003505 65 223 8.0 16.0 0.00 0.00 0.00 43 1007.7
20260505002505 66 239 10.0 17.0 0.00 0.00 0.00 41 1007.6
20260505002008 66 240 9.0 17.0 0.00 0.00 0.00 40 1007.4
20260505001518 66 145 8.0 13.0 0.00 0.00 0.00 40 1007.2
20260505001003 66 163 2.0 7.0 0.00 0.00 0.00 38 1007.0
20260505000507 66 222 4.0 7.0 0.00 0.00 0.00 37 1006.9
20260505000009 67 208 1.0 6.0 0.00 0.00 0.00 38 1006.8
20260504235503 67 203 2.0 6.0 0.00 0.00 0.00 37 1006.8
20260504235004 67 200 2.0 9.0 0.00 0.00 0.00 37 1006.7
20260504234512 68 288 4.0 9.0 0.00 0.00 0.00 36 1006.7
20260504234003 68 224 2.0 9.0 0.00 0.00 0.00 36 1006.7
20260504233504 68 210 4.0 9.0 0.00 0.00 0.00 35 1006.6
20260504233021 69 211 4.0 8.0 0.00 0.00 0.00 34 1006.4
20260504232507 69 223 4.0 7.0 0.00 0.00 0.00 35 1006.5
20260504232005 69 291 4.0 8.0 0.00 0.00 0.00 34 1006.4
20260504231516 70 212 4.0 8.0 0.00 0.00 0.00 34 1006.4
20260504231011 70 187 5.0 8.0 0.00 0.00 0.00 33 1006.2
20260504230507 70 218 2.0 8.0 0.00 0.00 0.00 33 1006.1
20260504230022 71 247 3.0 13.0 0.00 0.00 0.00 33 1006.0
20260504225504 71 208 5.0 13.0 0.00 0.00 0.00 31 1006.0
20260504225003 72 239 4.0 11.0 0.00 0.00 0.00 31 1006.0
20260504224505 72 220 5.0 12.0 0.00 0.00 0.00 31 1005.9
20260504224003 72 229 4.0 12.0 0.00 0.00 0.00 31 1005.9
20260504223504 72 258 4.0 10.0 0.00 0.00 0.00 30 1005.9
20260504223022 72 229 5.0 11.0 0.00 0.00 0.00 31 1005.8
20260504222504 72 225 6.0 11.0 0.00 0.00 0.00 32 1005.8
20260504222008 72 226 4.0 11.0 0.00 0.00 0.00 31 1005.8
20260504221516 72 219 6.0 13.0 0.00 0.00 0.00 31 1005.9
20260504221008 72 236 5.0 13.0 0.00 0.00 0.00 31 1005.8
20260504220505 73 179 5.0 13.0 0.00 0.00 0.00 30 1005.8
20260504220023 73 242 4.0 11.0 0.00 0.00 0.00 30 1005.8
20260504215509 73 209 5.0 17.0 0.00 0.00 0.00 30 1005.8
20260504215010 73 279 4.0 17.0 0.00 0.00 0.00 31 1005.8
20260504214523 73 217 5.0 13.0 0.00 0.00 0.00 30 1005.7
20260504214009 73 214 5.0 13.0 0.00 0.00 0.00 30 1005.7
20260504213504 73 188 4.0 13.0 0.00 0.00 0.00 30 1005.8
20260504213019 73 242 4.0 13.0 0.00 0.00 0.00 30 1005.7
20260504212503 72 285 6.0 13.0 0.00 0.00 0.00 30 1005.7
20260504212005 72 224 5.0 13.0 0.00 0.00 0.00 30 1005.7
20260504211515 73 236 7.0 13.0 0.00 0.00 0.00 30 1005.7
20260504211004 73 233 5.0 9.0 0.00 0.00 0.00 30 1005.7
20260504210506 73 205 4.0 15.0 0.00 0.00 0.00 31 1005.7
20260504205507 72 205 9.0 19.0 0.00 0.00 0.00 30 1005.7
20260504205007 72 279 9.0 19.0 0.00 0.00 0.00 29 1005.7
20260504204521 73 221 8.0 16.0 0.00 0.00 0.00 29 1005.7
20260504204011 73 222 6.0 14.0 0.00 0.00 0.00 29 1005.8
20260504203513 72 234 7.0 15.0 0.00 0.00 0.00 28 1005.7
20260504203022 73 256 6.0 17.0 0.00 0.00 0.00 30 1005.8
20260504202509 73 225 5.0 17.0 0.00 0.00 0.00 28 1005.6
20260504202004 73 274 6.0 17.0 0.00 0.00 0.00 28 1005.7
20260504201509 73 110 8.0 17.0 0.00 0.00 0.00 28 1005.7
20260504201003 73 222 6.0 15.0 0.00 0.00 0.00 28 1005.7
20260504200503 74 250 8.0 19.0 0.00 0.00 0.00 28 1005.7
20260504200019 73 198 9.0 19.0 0.00 0.00 0.00 28 1005.8
20260504195507 73 319 4.0 14.0 0.00 0.00 0.00 27 1005.8
20260504195007 73 217 8.0 18.0 0.00 0.00 0.00 27 1005.8
20260504194523 73 222 9.0 18.0 0.00 0.00 0.00 28 1005.9
20260504194009 73 255 9.0 18.0 0.00 0.00 0.00 27 1005.7
20260504193024 73 205 9.0 17.0 0.00 0.00 0.00 28 1005.7
20260504192508 73 298 7.0 17.0 0.00 0.00 0.00 28 1005.7
20260504192009 73 341 8.0 17.0 0.00 0.00 0.00 28 1005.7
20260504191537 72 262 9.0 18.0 0.00 0.00 0.00 30 1005.7
20260504191009 72 133 7.0 18.0 0.00 0.00 0.00 28 1005.8
20260504190508 72 271 9.0 20.0 0.00 0.00 0.00 28 1005.8
20260504190019 72 198 7.0 20.0 0.00 0.00 0.00 30 1005.9
20260504185503 72 276 14.0 20.0 0.00 0.00 0.00 28 1006.2
20260504185007 72 224 12.0 18.0 0.00 0.00 0.00 28 1006.5
20260504184532 72 226 7.0 21.0 0.00 0.00 0.00 28 1006.0
20260504184010 72 183 8.0 21.0 0.00 0.00 0.00 30 1006.1
20260504183508 72 287 5.0 21.0 0.00 0.00 0.00 30 1006.0
20260504183029 72 155 8.0 20.0 0.00 0.00 0.00 30 1006.3
20260504182512 71 248 11.0 21.0 0.00 0.00 0.00 29 1006.3
20260504182010 71 160 11.0 22.0 0.00 0.00 0.00 29 1006.4
20260504181523 70 264 6.0 22.0 0.00 0.00 0.00 32 1006.2
20260504181010 70 293 11.0 18.0 0.00 0.00 0.00 31 1006.1
20260504180512 71 257 8.0 17.0 0.00 0.00 0.00 30 1006.4
20260504180033 71 217 7.0 18.0 0.00 0.00 0.00 30 1006.5
20260504175510 70 181 7.0 26.0 0.00 0.00 0.00 32 1006.5
20260504175005 69 272 10.0 26.0 0.00 0.00 0.00 31 1006.4
20260504174513 70 285 10.0 25.0 0.00 0.00 0.00 30 1006.5
20260504174007 69 267 12.0 25.0 0.00 0.00 0.00 31 1006.6
20260504173506 69 216 11.0 20.0 0.00 0.00 0.00 29 1006.8
20260504173020 70 352 9.0 20.0 0.00 0.00 0.00 30 1006.5
20260504172507 69 212 10.0 20.0 0.00 0.00 0.00 31 1006.6
20260504172008 69 213 9.0 20.0 0.00 0.00 0.00 31 1006.8
20260504171522 69 297 8.0 18.0 0.00 0.00 0.00 31 1006.7
20260504171011 69 263 10.0 22.0 0.00 0.00 0.00 31 1006.8
20260504170507 69 295 10.0 22.0 0.00 0.00 0.00 31 1006.9
20260504151005 65 179 8.0 19.0 0.00 0.00 0.00 36 1007.8
20260504150500 65 179 7.0 17.0 0.00 0.00 0.00 39 1008.0
20260504141010 63 291 5.0 15.0 0.00 0.03 0.00 40 1008.3
20260504130507 58 198 6.0 12.0 0.00 0.03 0.00 45 1009.1
20260504110504 48 229 3.0 5.0 0.00 0.03 0.00 60 1009.9
20260504100507 46 262 2.0 4.0 0.00 0.03 0.00 62 1010.1
20260504082006 45 252 1.0 3.0 0.00 0.03 0.00 62 1009.6
20260504081520 45 210 1.0 4.0 0.00 0.03 0.00 61 1009.7
20260504081010 45 245 1.0 4.0 0.00 0.03 0.00 60 1009.7
20260504080508 45 210 1.0 4.0 0.00 0.03 0.00 61 1009.7
20260504050510 42 233 3.0 6.0 0.00 0.03 0.00 63 1009.7
20260504045507 42 214 3.0 6.0 0.00 0.03 0.00 65 1009.7
20260504045007 42 265 3.0 5.0 0.00 0.03 0.00 65 1009.6
20260504044517 42 236 3.0 4.0 0.00 0.03 0.00 64 1009.7
20260504044011 42 220 2.0 4.0 0.00 0.03 0.00 63 1009.7
20260504043513 42 253 2.0 4.0 0.00 0.03 0.00 62 1009.7
20260504043022 42 243 2.0 4.0 0.00 0.03 0.00 63 1009.7
20260504042510 42 230 2.0 4.0 0.00 0.03 0.00 63 1009.6
20260504042009 42 262 2.0 7.0 0.00 0.03 0.00 63 1009.6
20260504041526 42 250 2.0 7.0 0.00 0.03 0.00 62 1009.6
20260504041011 42 218 3.0 4.0 0.00 0.03 0.00 62 1009.6
20260504040510 42 253 2.0 4.0 0.00 0.03 0.00 62 1009.5
20260504040027 42 235 2.0 4.0 0.00 0.03 0.00 62 1009.5
20260504035510 42 236 2.0 4.0 0.00 0.03 0.03 63 1009.5
20260504035010 42 219 1.0 3.0 0.00 0.03 0.03 62 1009.4
20260504034529 42 224 1.0 3.0 0.00 0.03 0.03 62 1009.3
20260504034007 42 206 1.0 3.0 0.00 0.03 0.03 62 1009.3
20260504033506 42 219 1.0 4.0 0.00 0.03 0.03 62 1009.3
20260504033021 42 262 1.0 4.0 0.00 0.03 0.03 63 1009.3
20260504032506 42 205 1.0 3.0 0.00 0.03 0.03 64 1009.4
20260504032009 42 232 1.0 4.0 0.00 0.03 0.03 64 1009.4
20260504031524 42 253 1.0 4.0 0.00 0.03 0.03 63 1009.4
20260504031010 42 217 2.0 4.0 0.00 0.03 0.03 64 1009.4
20260504030510 42 177 2.0 4.0 0.00 0.03 0.03 63 1009.4